[[{"header":{"parameterUnit":"m.s-1","parameterCategory":1,"la1":30.2991,"la2":30.254,"lo1":-89.0895,"lo2":-89.0444,"dy":0.0017,"dx":0.0017,"nx":28,"ny":28,"refTime":"2025-11-04T03:00:00:Z","depth":0,"parameterNumber":2,"parameterNumberName":"U-component_of_WINDS"},"data":[0,0,0,0,0,0,0,0,0,0,0,0,0,0,0,0,0,0,0,0,0,0,0,0,0,0,0,0,0,0,0,0,0,0,0,0,0,0,0,0,0,0,0,0,0,0,0,0,0,0,0,0,0,0,0,0,0,0,0.4266,0.4266,0,0.4305,0.4306,0.4306,0.4336,0.4336,0.4336,0.4336,0.4377,0.4377,0.4378,0,0,0,0,0,0,0,0,0,0,0,0,0,0.4216,0.4217,0.4266,0.4266,0.4267,0.4305,0.4306,0.4306,0.4336,0.4336,0.4336,0.4337,0.4376,0.4377,0.4378,0,0,0,0,0,0,0,0,0,0,0,0,0,0.4245,0.4217,0.4266,0.4286,0.4288,0.4305,0.4306,0.4306,0.4336,0.4336,0.4336,0.4337,0.4376,0.4377,0.4378,0.4378,0,0,0.4382,0.4383,0,0,0,0,0,0,0,0,0.4243,0.4247,0.4283,0.4285,0.4287,0.4316,0.4303,0.433,0.4335,0.4318,0.4336,0.4337,0.4356,0.4359,0.4365,0.438,0.4381,0.4382,0.4383,0.4383,0.4384,0,0,0,0,0,0,0,0.4241,0.4245,0.4282,0.4283,0.4286,0.4293,0.4298,0.4308,0.4334,0.4319,0.4321,0.4326,0.4357,0.4364,0.4367,0.4382,0.4382,0.4383,0.4384,0.4384,0.4397,0.4397,0,0,0,0,0,0,0.4236,0.4243,0.428,0.4283,0.4266,0.4294,0.4299,0.4306,0.4334,0.4339,0.4325,0.4327,0.4362,0.4365,0.4368,0.4369,0.4383,0.4385,0.4385,0.4398,0.4397,0.4397,0,0,0,0,0,0,0.4235,0.4239,0.4279,0.4264,0.4269,0.4294,0.4302,0.4307,0.4314,0.4339,0.4343,0.4327,0.4362,0.4366,0.4375,0.4371,0.4385,0.4386,0.4398,0.4398,0.4397,0.4371,0,0,0,0,0,0,0.4233,0.4239,0.4239,0.4263,0.427,0.4285,0.4302,0.4307,0.4316,0.4318,0.4342,0.4346,0.4363,0.4373,0.4376,0.4373,0.4387,0.4399,0.4398,0.4397,0.4372,0.4369,0.4367,0,0,0,0,0,0.4232,0.423,0.4239,0.4243,0.4271,0.4285,0.4288,0.4308,0.4315,0.4315,0.4332,0.4346,0.4371,0.4374,0.4378,0.4374,0.4399,0.4398,0.4397,0.4373,0.437,0.4367,0,0,0,0,0,0,0.4204,0.4233,0.4243,0.425,0.4264,0.429,0.429,0.4303,0.4316,0.4318,0.4341,0.4347,0.4353,0.4365,0.4367,0.4375,0.4387,0.4387,0.4367,0.4364,0.4361,0.4358,0.4388,0,0,0,0,0,0.4198,0.4207,0.4233,0.4236,0.4243,0.4265,0.4272,0.4286,0.4302,0.4308,0.4325,0.434,0.4352,0.4359,0.437,0.4374,0.4379,0.4374,0.4371,0.4369,0.4368,0.4371,0.4368,0.4394,0.4394,0.4394,0,0,0.4187,0.4204,0.4209,0.423,0.4244,0.4252,0.427,0.4279,0.4285,0.431,0.4319,0.4331,0.435,0.4356,0.4359,0.4366,0.4362,0.4368,0.4366,0.4366,0.4369,0.4367,0.4365,0.4393,0.4394,0.4394,0,0,0.4171,0.4185,0.4189,0.4202,0.4221,0.4236,0.4237,0.4261,0.427,0.428,0.4298,0.4306,0.4325,0.4338,0.4346,0.4335,0.4348,0.4338,0.4324,0.4326,0.4324,0.4323,0.4318,0.4316,0.4338,0.4338,0.4338,0,0.4154,0.4168,0.4189,0.4197,0.4205,0.4228,0.4232,0.4243,0.4266,0.4271,0.4278,0.4303,0.4317,0.4326,0.4323,0.4329,0.4331,0.4335,0.4323,0.4322,0.432,0.4316,0.4314,0.4336,0.4336,0.4336,0.4337,0,0.4147,0.4156,0.4157,0.4178,0.4187,0.4193,0.4214,0.4221,0.4234,0.4248,0.4257,0.4275,0.4291,0.4294,0.4306,0.4305,0.4308,0.4319,0.4331,0.4316,0.4313,0.4311,0.4334,0.4335,0.4335,0.4335,0,0,0.4114,0.4147,0.4146,0.4156,0.4179,0.4187,0.4193,0.4209,0.4214,0.4229,0.4234,0.425,0.426,0.427,0.4284,0.4286,0.4275,0.4297,0.4298,0.4292,0.4274,0.4265,0.4263,0.4284,0.4284,0.4284,0.4272,0,0.4101,0.4114,0.4133,0.414,0.4148,0.417,0.4175,0.419,0.4204,0.4213,0.4228,0.4239,0.4251,0.4257,0.426,0.4276,0.4272,0.4277,0.429,0.429,0.4284,0.4261,0.4252,0.424,0.4271,0.4271,0.427,0,0.4088,0.4101,0.4109,0.4131,0.4135,0.414,0.4156,0.4164,0.4181,0.4191,0.4202,0.4218,0.4225,0.4237,0.4247,0.4251,0.4257,0.4265,0.4265,0.4267,0.4279,0.4261,0.4236,0.4234,0.4269,0.4269,0.4269,0,0.4062,0.4082,0.4089,0.4097,0.4123,0.4126,0.4137,0.4155,0.4163,0.4176,0.4182,0.4196,0.4204,0.4214,0.4233,0.424,0.4242,0.4255,0.425,0.4249,0.4249,0.4248,0.4224,0.4254,0.4254,0.4254,0.4254,0,0.4046,0.4049,0.4078,0.4082,0.4087,0.4109,0.4112,0.4126,0.4141,0.4148,0.4168,0.4174,0.4199,0.4207,0.4222,0.4229,0.4232,0.424,0.4244,0.4238,0.4237,0.4242,0.4243,0.4253,0.4253,0.4253,0.4253,0,0.4018,0.4037,0.4046,0.407,0.4077,0.4079,0.41,0.4104,0.4119,0.4128,0.4131,0.4154,0.4166,0.4186,0.4203,0.4213,0.4216,0.4223,0.421,0.4212,0.4206,0.4206,0.4183,0.4181,0.4213,0.4212,0.4212,0,0.4005,0.4008,0.4033,0.4039,0.405,0.4059,0.4068,0.4089,0.4097,0.4117,0.4119,0.4132,0.4143,0.4161,0.4179,0.4192,0.4199,0.419,0.4201,0.4195,0.4198,0.4198,0.4198,0.4188,0.4187,0.4187,0.4186,0,0.3981,0.3991,0.4002,0.4016,0.4025,0.4038,0.4051,0.4055,0.408,0.4087,0.4099,0.4108,0.4126,0.4138,0.4154,0.4166,0.418,0.4183,0.4182,0.4176,0.4168,0.4172,0.4203,0.4183,0.4184,0.4184,0.4184,0.4184,0.396,0.3964,0.3982,0.3994,0.4006,0.4018,0.4023,0.4039,0.4049,0.4065,0.4078,0.4089,0.4106,0.4128,0.4139,0.4148,0.4154,0.4154,0.4153,0.4153,0.415,0.4167,0.4151,0.4151,0.4151,0.4151,0.4151,0,0.3937,0.3949,0.396,0.3978,0.3987,0.4,0.4015,0.4022,0.4031,0.4046,0.4057,0.4071,0.4083,0.4102,0.4116,0.4119,0.4126,0.4122,0.4122,0.4124,0.4144,0.4142,0.4116,0.4116,0.4116,0.4116,0.4116,0.4116,0.3925,0.3932,0.3944,0.3957,0.397,0.3981,0.3988,0.3999,0.4011,0.4025,0.4036,0.4048,0.4065,0.408,0.4091,0.4097,0.4101,0.4094,0.4101,0.4119,0.4123,0.4126,0.4125,0.4095,0.4095,0.4081,0.4081,0.4081]},{"header":{"parameterUnit":"m.s-1","parameterCategory":1,"la1":30.2991,"la2":30.254,"lo1":-89.0895,"lo2":-89.0444,"dy":0.0017,"dx":0.0017,"nx":28,"ny":28,"refTime":"2025-11-04T03:00:00:Z","depth":0,"parameterNumber":3,"parameterNumberName":"V-component_of_WINDS"},"data":[0,0,0,0,0,0,0,0,0,0,0,0,0,0,0,0,0,0,0,0,0,0,0,0,0,0,0,0,0,0,0,0,0,0,0,0,0,0,0,0,0,0,0,0,0,0,0,0,0,0,0,0,0,0,0,0,0,0,0.0555,0.0555,0,0.0556,0.0556,0.0556,0.055,0.0549,0.0549,0.0549,0.055,0.055,0.055,0,0,0,0,0,0,0,0,0,0,0,0,0,0.0546,0.0546,0.0555,0.0555,0.0555,0.0556,0.0556,0.0556,0.055,0.0549,0.0549,0.0549,0.055,0.055,0.055,0,0,0,0,0,0,0,0,0,0,0,0,0,0.0549,0.0546,0.0555,0.0552,0.0551,0.0556,0.0556,0.0556,0.055,0.0549,0.0549,0.0549,0.055,0.055,0.0551,0.0558,0,0,0.0551,0.0552,0,0,0,0,0,0,0,0,0.0548,0.0549,0.0552,0.0552,0.0552,0.0553,0.0553,0.0557,0.055,0.055,0.0549,0.0549,0.0551,0.0551,0.0552,0.0558,0.0558,0.0552,0.0552,0.0552,0.0552,0,0,0,0,0,0,0,0.0548,0.0549,0.0555,0.0552,0.0552,0.055,0.055,0.0554,0.0552,0.055,0.055,0.055,0.0551,0.0552,0.0552,0.0558,0.0551,0.0552,0.0552,0.0552,0.0571,0.0571,0,0,0,0,0,0,0.0549,0.0549,0.0555,0.0555,0.0549,0.055,0.0551,0.0553,0.0552,0.0552,0.055,0.055,0.0552,0.0552,0.0552,0.0561,0.0552,0.0552,0.0552,0.057,0.0571,0.0571,0,0,0,0,0,0,0.0548,0.0549,0.0555,0.0552,0.0553,0.0551,0.0553,0.0553,0.0554,0.0552,0.0552,0.0552,0.0551,0.0552,0.0557,0.0561,0.0552,0.0553,0.057,0.057,0.0571,0.0579,0,0,0,0,0,0,0.0548,0.0549,0.0552,0.0552,0.0553,0.056,0.0553,0.0553,0.0554,0.0554,0.0554,0.0553,0.0551,0.0556,0.0557,0.0561,0.0553,0.057,0.057,0.0571,0.0578,0.058,0.0581,0,0,0,0,0,0.0548,0.0554,0.0552,0.0553,0.0557,0.056,0.0561,0.0558,0.0555,0.0558,0.0557,0.0553,0.056,0.0557,0.0558,0.0562,0.0569,0.057,0.0571,0.0578,0.0579,0.0581,0,0,0,0,0,0,0.0555,0.0554,0.0552,0.0559,0.056,0.0559,0.0563,0.056,0.0562,0.0561,0.0558,0.0558,0.0563,0.0563,0.0559,0.0569,0.0564,0.0565,0.0569,0.0571,0.0572,0.0572,0.0553,0,0,0,0,0,0.0557,0.056,0.056,0.0566,0.0566,0.0565,0.0566,0.0564,0.0565,0.0565,0.0565,0.0565,0.0568,0.0569,0.0571,0.0578,0.0578,0.0581,0.0583,0.0584,0.0584,0.0588,0.0589,0.0573,0.0573,0.0573,0,0,0.0562,0.0562,0.0564,0.0567,0.0568,0.0571,0.0565,0.0569,0.0571,0.0566,0.057,0.057,0.057,0.0576,0.0579,0.0576,0.0589,0.0585,0.0585,0.0586,0.0589,0.059,0.0592,0.0574,0.0574,0.0574,0,0,0.0572,0.0573,0.0578,0.0579,0.0579,0.0578,0.0579,0.0579,0.0579,0.0584,0.058,0.0582,0.0586,0.0587,0.0588,0.0598,0.0595,0.0599,0.0605,0.0609,0.061,0.0611,0.0615,0.0616,0.06,0.06,0.06,0,0.0578,0.0583,0.0581,0.0585,0.0586,0.0582,0.0586,0.0587,0.0588,0.0589,0.0586,0.0592,0.0592,0.0597,0.06,0.0601,0.0602,0.0599,0.061,0.0611,0.0612,0.0616,0.0617,0.06,0.06,0.06,0.06,0,0.059,0.0594,0.0597,0.0599,0.0601,0.0605,0.0603,0.0605,0.0603,0.0602,0.0607,0.0607,0.0609,0.061,0.0608,0.0616,0.0614,0.0611,0.0605,0.0614,0.0617,0.0619,0.0601,0.0601,0.0601,0.0601,0,0,0.0605,0.0605,0.0607,0.0607,0.0608,0.061,0.0614,0.0616,0.0618,0.0619,0.0622,0.0626,0.0623,0.0624,0.0622,0.0625,0.0633,0.0621,0.0621,0.0623,0.0641,0.0644,0.0645,0.0631,0.0631,0.0631,0.0641,0,0.0615,0.0622,0.062,0.0627,0.063,0.0626,0.0629,0.063,0.0629,0.0632,0.0631,0.0633,0.0629,0.063,0.0632,0.0632,0.0637,0.0631,0.0634,0.0634,0.0634,0.0647,0.0649,0.0659,0.0642,0.0643,0.0643,0,0.0627,0.0629,0.0637,0.0637,0.0638,0.0641,0.0643,0.0645,0.0646,0.0645,0.0646,0.0643,0.0647,0.0642,0.0647,0.0643,0.0644,0.0644,0.0644,0.0644,0.0639,0.0647,0.0661,0.0663,0.0645,0.0644,0.0644,0,0.0637,0.0641,0.0646,0.0647,0.0647,0.065,0.065,0.065,0.0651,0.0653,0.0654,0.0655,0.0656,0.0658,0.0656,0.0652,0.0661,0.0656,0.066,0.066,0.0662,0.0662,0.0677,0.0663,0.0663,0.0663,0.0663,0,0.0648,0.0653,0.0651,0.0654,0.0659,0.0656,0.0661,0.0661,0.0661,0.0664,0.0661,0.0663,0.066,0.0663,0.0661,0.0665,0.0666,0.0665,0.0665,0.0665,0.0665,0.0666,0.0665,0.0663,0.0663,0.0663,0.0663,0,0.066,0.0658,0.0664,0.0663,0.0664,0.0667,0.0667,0.067,0.0669,0.0672,0.0673,0.0671,0.0674,0.0672,0.0674,0.0673,0.0679,0.0678,0.0679,0.0678,0.0683,0.0683,0.0698,0.07,0.0686,0.0686,0.0686,0,0.0667,0.067,0.0671,0.0672,0.0673,0.0676,0.0677,0.0675,0.0676,0.0677,0.068,0.0682,0.0684,0.0688,0.0687,0.0689,0.0687,0.0693,0.0688,0.0688,0.0687,0.0687,0.0687,0.0694,0.0694,0.0694,0.0694,0,0.068,0.0679,0.0681,0.0683,0.0685,0.0687,0.0688,0.0689,0.0687,0.0689,0.0692,0.0693,0.0695,0.0698,0.0699,0.0699,0.0696,0.0696,0.0697,0.0698,0.0698,0.0698,0.0682,0.0696,0.0695,0.0695,0.0695,0.0695,0.0689,0.0692,0.0693,0.0695,0.0696,0.0697,0.07,0.0699,0.0701,0.0703,0.0702,0.0705,0.0705,0.0707,0.0708,0.071,0.0708,0.0709,0.071,0.071,0.0711,0.0698,0.071,0.071,0.071,0.071,0.071,0,0.0701,0.0702,0.0704,0.0706,0.0708,0.0705,0.0707,0.0708,0.0711,0.0712,0.0714,0.0717,0.0719,0.0718,0.072,0.0722,0.0721,0.0723,0.0723,0.0723,0.0713,0.0711,0.0724,0.0724,0.0724,0.0724,0.0724,0.0724,0.0708,0.0713,0.0712,0.0717,0.0717,0.0721,0.0721,0.0722,0.0723,0.0727,0.0729,0.0728,0.0728,0.073,0.0732,0.0732,0.0733,0.0735,0.0734,0.0725,0.0723,0.0722,0.0721,0.0735,0.0735,0.0744,0.0744,0.0744]}]]